Dewpoint
45 45 45 45 44 44 44 46 46 43 44 42 43 45 45 52 53 57 53 50 51 49 47 46 49 48 41 34 28 37 44 45 42 38 30 27 26 22 19 15 17 18 21 23 25 26 28
44 47 47 47 47 46 45 46 46 44 43 44 42 43 46 50 53 56 50 51 49 48 47 46 48 47 37 31 26 33 37 38 33 32 30 30 28 27 26 23 21 18 16 17 19 21 27
45 47 47 47 47 48 47 46 45 44 44 43 42 43 44 49 53 52 50 51 49 48 47 46 48 44 38 33 27 32 34 32 33 33 30 30 31 30 27 25 25 25 23 20 18 21 24
45 47 47 47 47 47 47 48 46 44 44 42 43 43 44 49 53 51 51 51 48 46 46 47 49 43 35 31 30 33 32 32 35 35 35 34 35 32 30 32 30 27 27 22 18 16 21
46 46 46 47 47 46 46 47 46 45 45 42 42 42 44 46 50 51 51 49 47 46 49 48 45 41 28 37 30 29 30 32 33 36 37 35 36 32 34 30 27 25 22 19 17 13 20
44 46 46 47 47 46 45 45 46 46 46 43 41 42 44 50 53 50 47 47 48 47 45 42 38 32 30 27 31 31 33 32 31 31 33 34 34 30 31 29 19 24 23 16 14 11 19
44 45 46 46 46 46 46 46 46 45 44 44 43 42 44 53 50 48 48 45 38 37 38 30 30 29 27 30 33 32 33 33 32 30 26 28 29 24 24 28 30 27 21 17 18 10 24
44 44 45 46 47 46 46 46 46 46 45 44 44 44 42 50 49 48 47 39 35 37 33 33 34 33 33 34 31 32 35 32 31 30 30 30 26 26 34 33 32 31 23 20 19 22 23
46 46 46 46 44 47 47 47 46 46 44 44 44 44 43 48 49 48 43 40 40 37 30 33 34 33 33 34 31 32 35 34 32 32 32 29 29 34 33 30 27 26 24 22 29 25 24
44 44 44 44 45 45 46 47 47 46 45 44 43 44 49 51 45 45 42 45 42 39 31 28 31 33 35 34 34 36 36 36 35 31 32 31 33 33 32 28 24 19 21 28 31 25 24
44 42 43 44 46 47 46 46 46 46 45 42 43 44 51 46 45 42 44 44 42 35 18 26 30 36 35 35 35 37 38 39 32 33 32 32 32 32 31 26 24 25 27 26 30 26 30
43 43 44 44 44 45 46 46 46 46 44 43 43 45 50 45 45 45 45 42 37 28 17 25 30 32 32 34 34 38 39 40 37 34 35 33 36 35 32 31 28 31 30 34 36 32 23
43 43 42 42 43 44 46 47 44 45 44 45 45 46 48 45 42 46 42 35 29 23 20 26 29 29 28 28 30 33 34 36 33 30 30 34 35 36 37 32 34 33 33 27 25 25 22
43 42 42 42 44 45 45 46 45 44 45 44 46 48 48 46 47 44 38 31 24 20 24 26 27 27 26 28 28 28 30 34 35 33 31 29 25 34 37 36 34 32 31 26 22 22 24
44 44 45 44 44 45 44 44 44 45 44 44 48 46 45 46 45 43 33 29 27 24 24 26 26 23 24 25 27 26 28 30 31 31 31 31 30 36 36 37 35 30 25 26 24 21 21
45 47 44 45 44 44 45 43 42 43 44 46 45 43 42 46 45 41 32 28 29 25 28 26 19 22 20 23 24 25 26 32 32 32 33 32 29 34 35 35 34 29 27 25 27 17 15
49 52 50 45 44 44 43 41 43 44 45 47 42 37 43 46 44 33 29 28 28 29 32 27 22 22 22 23 26 25 26 31 33 32 31 31 32 31 33 31 31 30 26 23 23 19 12
51 53 51 46 45 44 43 45 47 46 46 46 41 32 44 45 35 30 26 31 32 29 34 31 28 25 24 26 25 25 27 30 34 33 28 29 30 28 29 31 30 31 28 24 24 15 18
50 50 52 49 45 45 44 46 47 47 46 42 37 37 44 44 30 26 30 32 33 30 31 30 28 27 28 27 25 28 29 34 34 33 30 28 25 26 25 27 28 27 26 25 25 30 21
51 49 49 52 48 47 46 47 48 48 45 42 37 32 37 37 31 26 30 30 26 34 33 31 29 29 27 26 28 27 27 32 34 32 34 31 27 25 23 27 29 26 26 25 29 25 20
51 48 48 47 50 52 51 50 49 50 46 42 37 33 33 30 30 28 32 30 26 27 33 31 28 28 26 22 24 25 29 28 30 31 30 29 27 27 26 26 28 25 25 25 26 24 23
48 50 47 47 46 46 47 47 46 45 43 41 34 31 33 30 29 29 31 30 25 29 31 27 27 29 27 26 27 25 27 27 28 28 28 29 26 27 23 23 24 21 22 24 25 25 25
47 49 49 45 44 44 43 44 44 44 45 40 36 35 30 30 28 28 28 30 28 31 33 32 29 27 28 31 31 31 31 30 30 29 27 26 26 25 22 21 19 18 21 23 24 25 25
45 48 50 47 45 43 41 40 39 39 40 37 36 33 28 27 27 27 30 33 29 32 30 32 33 29 32 32 31 30 30 29 29 29 29 25 25 25 20 17 13 21 23 23 23 25 27
44 47 50 49 48 46 44 43 41 40 38 36 35 34 29 26 27 28 30 33 34 33 33 33 35 35 33 31 28 24 23 25 26 28 28 28 23 19 17 10 15 20 22 23 22 22 28
43 45 48 51 50 48 48 45 41 39 38 36 36 37 32 27 26 30 32 33 29 29 32 35 36 36 34 29 24 19 12 19 16 22 28 28 25 20 18 12 2 18 25 27 24 18 29
43 45 48 50 51 50 49 46 44 40 38 36 36 37 34 30 30 32 33 33 34 32 31 34 33 34 34 28 24 20 16 23 17 17 20 23 23 20 16 17 14 23 27 27 18 21 30
43 46 49 51 50 51 48 45 43 42 40 37 35 37 36 32 32 32 32 33 34 34 29 35 32 33 31 28 25 23 19 21 21 22 21 19 18 18 20 18 14 26 27 22 27 29 29
44 48 51 51 51 50 50 45 43 42 41 40 35 35 36 35 33 34 34 34 34 33 35 36 34 33 35 29 26 25 21 22 20 13 25 19 20 19 20 19 26 27 28 31 30 29 28
Wind_Speed
26 23 21 21 20 20 17 15 17 18 22 21 21 22 20 22 21 18 14 8 6 4 3 1 6 4 2 4 8 10 4 7 7 2 6 8 9 10 13 10 13 20 22 24 23 21 21
26 25 23 23 22 21 21 18 16 15 19 20 21 21 21 25 27 18 17 12 7 3 4 3 5 4 1 6 3 6 6 5 4 5 6 7 6 7 11 14 15 16 19 21 24 24 20
29 25 25 22 22 21 19 18 16 15 16 19 20 21 21 22 27 22 16 14 9 5 3 2 6 5 5 9 2 6 4 6 5 7 8 7 7 8 4 13 12 17 25 26 26 21 25
31 30 27 25 21 19 20 19 16 14 16 16 19 20 23 19 12 18 16 16 8 4 4 3 6 4 5 3 3 5 7 7 5 7 7 5 5 12 12 10 17 18 23 25 28 26 25
32 30 28 26 23 21 18 18 18 17 15 16 15 20 22 23 27 18 17 13 7 3 1 7 7 2 5 4 6 8 9 10 10 7 6 6 6 10 4 9 12 14 19 22 25 24 22
34 32 29 27 24 21 22 18 19 16 12 15 14 19 24 30 23 22 17 13 9 12 9 6 3 2 5 2 4 3 6 8 9 10 10 10 7 7 6 9 18 10 18 23 20 23 26
35 34 32 28 24 22 22 20 18 15 11 13 12 15 18 21 26 25 22 12 8 3 6 5 6 2 1 3 4 6 7 8 11 11 16 10 8 17 17 20 26 21 19 17 20 23 25
36 33 32 29 25 22 22 19 17 11 9 11 11 13 12 8 20 14 7 2 2 3 5 12 3 5 6 2 4 6 5 8 12 16 14 7 21 19 13 18 18 21 16 21 20 17 23
36 34 33 30 28 21 23 22 16 11 7 8 11 12 16 20 20 10 4 2 1 2 3 4 5 4 1 5 5 5 11 4 10 11 13 15 8 3 10 13 14 17 23 21 9 24 23
36 34 35 32 24 25 23 18 14 7 7 10 9 12 18 29 12 7 4 8 4 3 2 5 3 2 4 3 5 7 8 5 3 4 5 10 7 10 13 15 15 16 16 13 22 25 13
29 29 28 26 25 22 17 18 7 3 6 3 5 6 12 6 13 8 1 9 6 4 4 5 4 3 2 6 1 8 6 4 5 3 2 2 2 6 9 11 12 10 15 12 17 10 17
33 30 24 23 20 14 13 6 2 6 7 4 4 8 13 5 3 2 5 11 3 3 2 4 4 3 5 9 4 5 6 3 3 1 4 4 3 3 7 7 11 11 4 8 3 6 7
29 25 23 21 19 14 11 11 9 6 5 2 4 7 4 7 1 3 7 5 2 3 2 4 4 6 4 2 2 1 2 2 3 3 2 2 1 4 6 2 6 4 7 3 1 5 6
32 23 18 16 15 11 12 8 8 8 8 9 8 7 7 5 7 5 5 3 3 3 3 1 4 5 1 2 2 2 4 4 5 3 3 5 4 6 3 4 3 9 6 5 4 3 7
25 30 25 16 12 12 9 13 10 10 8 9 8 5 5 5 8 6 5 1 2 3 2 6 5 3 3 1 2 2 5 6 5 8 5 2 5 6 2 8 7 5 3 5 1 14 8
35 22 18 14 5 8 17 14 7 3 6 6 5 5 6 4 4 4 2 2 3 1 0 1 1 3 2 5 3 4 6 8 4 7 5 4 3 5 7 7 3 2 2 3 1 3 8
52 33 18 18 10 7 14 10 8 6 8 7 5 6 4 3 3 5 0 4 3 1 2 4 4 2 5 4 6 6 7 6 10 7 4 2 3 5 4 8 11 11 8 5 5 4 5
42 37 15 31 15 12 13 10 10 14 14 5 4 6 1 4 1 4 2 3 3 1 1 2 3 6 7 4 5 3 6 7 12 7 5 6 3 3 2 4 3 5 9 7 5 3 5
42 44 36 28 23 16 16 15 11 22 16 8 5 5 2 5 2 3 1 2 2 2 4 4 4 6 4 4 1 3 4 5 9 9 6 7 3 1 3 4 3 5 13 11 3 5 6
34 36 38 25 21 19 17 15 18 29 19 7 7 5 1 3 3 1 3 2 2 1 3 3 3 2 3 5 5 3 3 4 6 6 5 4 6 6 6 4 6 8 14 16 6 10 16
33 29 30 31 28 19 20 21 23 21 10 1 2 4 5 5 4 4 1 1 4 1 2 3 2 5 5 3 2 4 4 3 3 4 3 4 5 7 9 7 6 8 12 15 17 8 14
32 25 23 23 23 24 25 26 22 12 3 4 2 5 5 5 6 7 4 5 6 2 3 2 2 5 7 5 5 5 5 5 5 4 3 2 3 1 6 7 5 8 11 9 11 11 9
23 27 19 18 19 17 14 12 7 6 9 1 2 1 2 8 8 7 5 3 6 2 2 3 2 2 7 6 6 7 7 5 6 6 6 4 3 0 3 3 2 1 8 8 6 8 5
19 18 19 11 14 14 17 17 12 10 4 2 1 4 3 7 10 10 4 2 7 1 0 2 4 1 3 4 0 1 4 5 7 9 5 2 2 2 2 4 2 3 3 2 4 3 5
20 17 14 5 6 12 12 12 14 14 7 6 3 1 1 5 10 8 6 4 5 3 3 3 4 2 3 4 3 3 3 2 2 5 6 5 1 1 2 4 2 1 3 3 2 2 3
18 16 10 6 3 4 8 9 12 11 9 5 4 3 1 10 10 3 8 9 6 4 4 2 3 1 3 2 2 3 2 2 0 1 0 2 2 4 1 2 2 5 8 4 1 6 9
18 18 14 5 10 10 0 4 7 9 11 6 5 4 1 3 2 3 5 7 2 0 3 3 4 2 1 2 2 2 1 1 2 3 1 1 2 4 3 3 1 9 10 5 3 3 12
17 19 17 9 12 18 8 4 7 8 10 5 3 6 3 3 5 1 1 1 2 3 5 5 4 4 3 4 2 0 2 1 3 2 3 3 2 3 2 3 3 11 7 5 6 9 8
17 20 18 7 18 22 12 6 5 9 12 11 4 2 7 5 4 3 4 3 2 3 3 2 2 1 3 2 2 2 3 2 2 2 3 4 3 2 5 1 2 16 1 5 4 7 5
Wind_Direction
318 311 308 303 302 301 303 304 312 317 319 321 326 328 322 330 318 197 159 146 180 182 219 224 173 155 201 242 256 135 122 127 152 184 263 258 262 262 254 263 263 261 263 261 260 258 261
309 308 305 299 300 299 293 298 299 308 314 317 322 321 326 323 322 166 150 154 164 197 170 152 155 162 223 260 64 166 181 172 236 239 239 240 257 288 285 270 263 270 278 268 262 257 248
310 312 308 302 302 297 292 288 294 298 306 314 317 323 319 319 322 148 151 161 149 137 202 179 159 200 245 253 6 167 171 218 217 246 261 248 273 258 298 287 278 275 271 262 258 250 245
311 309 307 301 300 295 296 292 289 290 296 305 314 318 314 316 336 141 159 145 147 176 180 167 164 199 270 69 261 194 214 230 234 244 269 303 265 264 267 269 283 273 269 259 247 239 227
311 308 308 304 298 300 295 295 294 288 289 303 311 311 309 299 309 154 139 135 132 160 204 151 157 199 273 128 213 217 222 233 222 218 239 254 254 246 212 261 274 245 258 240 252 233 228
309 308 308 309 304 301 297 294 290 297 299 297 305 310 316 292 163 143 130 129 150 121 120 131 110 187 227 236 149 200 228 239 233 236 233 229 233 246 236 229 264 282 243 248 250 225 216
316 316 314 310 306 301 297 295 295 296 297 292 300 314 332 125 140 140 135 131 132 139 198 202 141 67 157 132 179 218 228 230 232 237 240 199 228 241 245 250 255 281 282 273 256 221 202
319 317 315 317 311 304 298 298 299 289 287 284 296 309 315 351 129 142 125 205 95 57 152 223 127 254 262 277 274 217 192 225 209 232 234 209 244 256 300 262 251 252 262 264 248 200 188
319 321 317 313 316 318 315 293 283 283 285 283 289 299 298 306 142 138 203 274 277 307 133 130 196 260 227 207 254 220 198 228 249 259 242 230 237 153 285 261 233 233 248 267 232 171 206
320 318 309 306 301 305 299 281 278 268 256 284 280 311 314 139 140 141 216 251 271 251 118 124 187 139 157 210 255 201 215 237 200 273 264 249 273 254 254 237 229 253 248 249 176 168 165
331 331 331 322 307 302 299 282 294 216 218 292 314 356 153 115 136 169 205 204 245 249 139 146 144 91 180 223 357 196 184 123 249 254 262 67 239 185 218 230 215 258 304 228 212 196 125
330 331 328 323 331 331 317 315 215 177 180 282 302 11 152 83 81 118 231 174 222 183 114 170 148 204 223 210 204 136 192 175 186 274 222 283 282 235 265 270 228 280 284 317 327 264 80
342 336 335 337 337 344 4 89 88 134 159 30 36 8 154 133 93 145 202 185 161 83 185 169 200 200 216 130 94 238 228 174 335 302 1 281 268 268 249 259 168 292 276 117 73 55 57
345 347 342 341 348 46 71 119 152 137 103 58 12 36 112 61 108 131 195 224 77 90 142 131 184 200 205 345 139 17 54 112 355 357 352 12 284 350 298 258 226 200 264 340 70 73 90
335 332 338 349 2 92 86 105 108 116 87 67 82 58 54 44 89 335 237 40 65 72 141 173 178 199 112 134 298 340 60 51 24 9 319 328 0 314 309 327 348 359 9 312 89 108 84
321 285 262 287 347 78 119 120 127 118 78 76 100 74 36 49 25 302 265 33 33 25 347 264 293 309 91 18 336 14 42 34 3 8 38 350 13 340 307 300 237 335 300 229 285 71 80
332 336 231 222 207 154 123 151 170 140 131 103 67 78 30 33 5 258 159 46 36 83 340 328 21 99 59 38 11 27 33 84 8 345 310 359 331 319 302 17 5 358 3 341 313 346 107
20 26 49 172 192 170 149 173 177 154 139 107 72 76 27 345 181 264 144 7 340 43 305 317 328 45 50 40 27 31 41 25 1 343 11 14 38 79 26 320 324 311 15 5 328 16 23
19 29 51 149 172 182 171 172 163 150 154 124 80 90 281 290 98 155 97 41 337 343 357 1 24 34 32 41 37 21 8 21 13 22 23 343 33 123 304 226 181 34 11 6 2 11 10
17 31 42 82 158 177 187 180 159 160 169 105 128 115 77 285 299 188 116 113 129 8 343 2 41 24 9 34 38 67 35 6 1 14 335 286 33 20 66 35 341 8 19 29 60 55 74
17 29 42 53 73 122 167 179 187 192 173 77 84 118 171 180 211 146 107 144 162 150 359 348 74 50 10 19 34 38 26 355 54 19 27 15 60 56 57 42 42 32 27 35 54 43 110
28 19 29 44 60 80 99 119 137 171 225 32 105 143 179 144 140 153 165 185 186 138 331 23 81 33 25 50 21 27 346 16 21 358 54 50 129 18 46 32 35 45 30 38 53 60 99
26 31 16 24 50 49 63 75 109 179 214 106 86 293 175 158 160 164 178 166 179 200 91 41 56 79 65 53 50 60 66 60 31 353 11 18 119 11 87 13 340 281 18 36 58 47 2
17 34 32 14 29 50 52 51 40 28 17 131 130 172 162 171 181 189 175 190 173 37 64 77 14 354 91 106 104 124 86 72 49 41 16 93 73 7 16 335 0 70 10 350 85 61 98
0 16 37 66 5 30 47 44 45 50 49 113 114 250 174 138 187 190 198 180 148 111 88 88 28 42 154 290 270 275 194 225 47 32 27 18 269 151 234 217 102 217 191 184 223 249 199
343 347 2 84 258 273 9 35 48 40 31 72 59 330 275 137 188 158 183 190 176 163 139 63 77 134 299 289 287 327 352 345 297 214 239 314 316 280 221 245 248 109 151 166 195 254 180
330 330 324 291 177 193 160 21 46 56 47 62 46 358 275 121 122 165 177 189 318 163 114 132 156 211 259 280 291 302 327 321 299 299 325 263 272 256 258 287 270 151 151 160 226 118 162
318 317 311 279 177 157 133 106 76 48 27 18 31 15 343 83 124 180 18 263 223 253 181 134 158 205 231 255 271 312 274 87 266 243 272 272 240 224 201 247 262 154 132 205 115 130 149
329 329 319 194 160 162 155 140 65 33 12 354 352 39 23 65 94 111 105 81 21 347 341 148 19 20 17 287 281 308 262 238 311 278 203 260 247 318 237 345 96 184 56 111 150 159 163